Time,TemperatureF,DewpointF,PressureIn,WindDirection,WindDirectionDegrees,WindSpeedMPH,WindSpeedGustMPH,Humidity,HourlyPrecipIn,Conditions,Clouds,dailyrainin,SoftwareType,DateUTC
2013-05-14 00:03:00,41.3,28.9,30.00,WNW,293,2.0,19.0,61,0.00,FEW,,0.00,WeatherDisplay:10.37,2013-05-14 04:03:00,
2013-05-14 00:13:00,41.3,28.9,30.00,NW,312,1.0,7.0,61,0.00,FEW,,0.00,WeatherDisplay:10.37,2013-05-14 04:13:00,
2013-05-14 00:23:00,41.3,28.9,30.00,NW,319,1.0,10.0,61,0.00,FEW,,0.00,WeatherDisplay:10.37,2013-05-14 04:23:00,
2013-05-14 00:43:00,41.0,29.0,30.00,NW,321,1.0,6.0,62,0.00,FEW,,0.00,WeatherDisplay:10.37,2013-05-14 04:43:00,
2013-05-14 00:53:00,40.7,28.7,30.00,NNW,336,1.0,4.0,62,0.00,FEW,,0.00,WeatherDisplay:10.37,2013-05-14 04:53:00,
2013-05-14 01:03:00,40.6,29.0,30.00,NNW,341,0.0,4.0,63,0.00,CLR,,0.00,WeatherDisplay:10.37,2013-05-14 05:03:00,
2013-05-14 01:13:00,40.3,29.5,30.00,NW,319,2.0,4.0,65,0.00,CLR,,0.00,WeatherDisplay:10.37,2013-05-14 05:13:00,
2013-05-14 01:23:00,40.3,29.5,30.00,North,351,0.0,5.0,65,0.00,CLR,,0.00,WeatherDisplay:10.37,2013-05-14 05:23:00,
2013-05-14 01:33:00,40.0,29.6,30.00,WNW,295,1.0,6.0,66,0.00,CLR,,0.00,WeatherDisplay:10.37,2013-05-14 05:33:00,
2013-05-14 01:43:00,40.0,29.2,30.00,WNW,285,1.0,4.0,65,0.00,CLR,,0.00,WeatherDisplay:10.37,2013-05-14 05:43:00,
2013-05-14 01:53:00,40.0,29.6,30.00,WNW,287,0.0,3.0,66,0.00,CLR,,0.00,WeatherDisplay:10.37,2013-05-14 05:53:00,
2013-05-14 02:03:00,40.0,29.2,30.00,NW,312,0.0,5.0,65,0.00,OVC,,0.00,WeatherDisplay:10.37,2013-05-14 06:03:00,
2013-05-14 02:13:00,40.0,29.6,30.00,NW,315,1.0,10.0,66,0.00,OVC,,0.00,WeatherDisplay:10.37,2013-05-14 06:13:00,
2013-05-14 02:23:00,40.3,29.5,30.00,WNW,286,0.0,10.0,65,0.00,OVC,,0.00,WeatherDisplay:10.37,2013-05-14 06:23:00,
2013-05-14 02:33:00,40.7,29.5,30.00,NW,318,1.0,10.0,64,0.00,OVC,,0.00,WeatherDisplay:10.37,2013-05-14 06:33:00,
2013-05-14 02:43:00,40.9,29.3,30.00,WNW,303,1.0,10.0,63,0.00,OVC,,0.00,WeatherDisplay:10.37,2013-05-14 06:43:00,
2013-05-14 02:53:00,41.0,29.4,30.00,West,262,2.0,10.0,63,0.00,OVC,,0.00,WeatherDisplay:10.37,2013-05-14 06:53:00,
2013-05-14 03:03:00,41.1,29.5,30.00,NW,310,1.0,10.0,63,0.00,OVC,,0.00,WeatherDisplay:10.37,2013-05-14 07:03:00,
2013-05-14 03:13:00,41.1,29.5,30.00,WNW,300,2.0,10.0,63,0.00,OVC,,0.00,WeatherDisplay:10.37,2013-05-14 07:13:00,
2013-05-14 03:23:00,40.9,29.7,30.00,WNW,291,1.0,10.0,64,0.00,OVC,,0.00,WeatherDisplay:10.37,2013-05-14 07:23:00,
2013-05-14 03:33:00,40.6,29.7,30.00,WNW,294,1.0,10.0,65,0.00,OVC,,0.00,WeatherDisplay:10.37,2013-05-14 07:33:00,
2013-05-14 03:43:00,40.4,29.2,30.00,WNW,284,2.0,10.0,64,0.00,OVC,,0.00,WeatherDisplay:10.37,2013-05-14 07:43:00,
2013-05-14 03:53:00,40.4,29.2,30.00,WNW,299,2.0,10.0,64,0.00,OVC,,0.00,WeatherDisplay:10.37,2013-05-14 07:53:00,
2013-05-14 04:03:00,40.7,29.1,30.00,NW,321,1.0,12.0,63,0.00,OVC,,0.00,WeatherDisplay:10.37,2013-05-14 08:03:00,
2013-05-14 04:13:00,41.1,28.3,30.00,NNW,340,6.0,11.0,60,0.00,OVC,,0.00,WeatherDisplay:10.37,2013-05-14 08:13:00,
2013-05-14 04:23:00,41.6,28.7,30.00,NNW,336,2.0,11.0,60,0.00,OVC,,0.00,WeatherDisplay:10.37,2013-05-14 08:23:00,
2013-05-14 04:33:00,41.7,28.4,30.00,NNW,331,3.0,12.0,59,0.00,OVC,,0.00,WeatherDisplay:10.37,2013-05-14 08:33:00,
2013-05-14 04:43:00,41.7,28.4,30.00,NNW,335,6.0,11.0,59,0.00,OVC,,0.00,WeatherDisplay:10.37,2013-05-14 08:43:00,
2013-05-14 04:53:00,41.7,28.0,30.01,NNW,340,3.0,11.0,58,0.00,OVC,,0.00,WeatherDisplay:10.37,2013-05-14 08:53:00,
2013-05-14 05:03:00,41.9,28.2,30.01,North,354,2.0,12.0,58,0.00,OVC,,0.00,WeatherDisplay:10.37,2013-05-14 09:03:00,
2013-05-14 05:13:00,42.0,28.3,30.01,NNW,348,3.0,12.0,58,0.00,OVC,,0.00,WeatherDisplay:10.37,2013-05-14 09:13:00,
2013-05-14 05:23:00,42.0,28.3,30.01,NNW,339,5.0,12.0,58,0.00,OVC,,0.00,WeatherDisplay:10.37,2013-05-14 09:23:00,
2013-05-14 05:33:00,42.0,28.3,30.01,NNW,341,5.0,12.0,58,0.00,OVC,,0.00,WeatherDisplay:10.37,2013-05-14 09:33:00,
2013-05-14 05:43:00,41.9,28.6,30.01,NNW,338,2.0,7.0,59,0.00,OVC,,0.00,WeatherDisplay:10.37,2013-05-14 09:43:00,
2013-05-14 05:53:00,41.7,28.8,30.02,NW,310,1.0,10.0,60,0.00,OVC,,0.00,WeatherDisplay:10.37,2013-05-14 09:53:00,
2013-05-14 06:03:00,41.6,29.1,30.02,NW,323,5.0,12.0,61,0.00,OVC,,0.00,WeatherDisplay:10.37,2013-05-14 10:03:00,
2013-05-14 06:13:00,41.4,28.9,30.02,WNW,292,7.0,12.0,61,0.00,OVC,,0.00,WeatherDisplay:10.37,2013-05-14 10:13:00,
2013-05-14 06:23:00,41.1,29.1,30.03,NW,323,1.0,12.0,62,0.00,OVC,,0.00,WeatherDisplay:10.37,2013-05-14 10:23:00,
2013-05-14 06:33:00,40.9,29.3,30.03,NW,322,3.0,7.0,63,0.00,OVC,,0.00,WeatherDisplay:10.37,2013-05-14 10:33:00,
2013-05-14 06:43:00,40.7,29.5,30.03,NW,319,3.0,8.0,64,0.00,OVC,,0.00,WeatherDisplay:10.37,2013-05-14 10:43:00,
2013-05-14 06:53:00,40.7,29.1,30.03,NNW,347,2.0,6.0,63,0.00,OVC,,0.00,WeatherDisplay:10.37,2013-05-14 10:53:00,
2013-05-14 07:03:00,40.9,29.3,30.03,NNW,332,2.0,7.0,63,0.00,BKN,,0.00,WeatherDisplay:10.37,2013-05-14 11:03:00,
2013-05-14 07:13:00,42.0,29.5,30.03,North,352,2.0,12.0,61,0.00,BKN,,0.00,WeatherDisplay:10.37,2013-05-14 11:13:00,
2013-05-14 07:23:00,43.0,29.6,30.03,NNW,337,1.0,10.0,59,0.00,BKN,,0.00,WeatherDisplay:10.37,2013-05-14 11:23:00,
2013-05-14 07:33:00,43.7,29.9,30.03,NNW,340,2.0,9.0,58,0.00,BKN,,0.00,WeatherDisplay:10.37,2013-05-14 11:33:00,
2013-05-14 07:43:00,44.2,29.9,30.03,North,351,5.0,9.0,57,0.00,BKN,,0.00,WeatherDisplay:10.37,2013-05-14 11:43:00,
2013-05-14 07:53:00,44.2,30.3,30.03,North,349,6.0,12.0,58,0.00,BKN,,0.00,WeatherDisplay:10.37,2013-05-14 11:53:00,
2013-05-14 08:03:00,44.7,30.0,30.03,North,9,3.0,13.0,56,0.00,BKN,,0.00,WeatherDisplay:10.37,2013-05-14 12:03:00,
2013-05-14 08:13:00,45.4,31.1,30.03,NNW,327,1.0,12.0,57,0.00,BKN,,0.00,WeatherDisplay:10.37,2013-05-14 12:13:00,
2013-05-14 08:23:00,46.0,31.2,30.03,NNW,341,2.0,9.0,56,0.00,BKN,,0.00,WeatherDisplay:10.37,2013-05-14 12:23:00,
2013-05-14 08:33:00,46.4,31.6,30.03,NNW,330,1.0,5.0,56,0.00,BKN,,0.00,WeatherDisplay:10.37,2013-05-14 12:33:00,
2013-05-14 08:43:00,46.8,31.0,30.03,NW,324,2.0,7.0,54,0.00,BKN,,0.00,WeatherDisplay:10.37,2013-05-14 12:43:00,
2013-05-14 08:53:00,47.1,31.7,30.03,NW,315,1.0,6.0,55,0.00,BKN,,0.00,WeatherDisplay:10.37,2013-05-14 12:53:00,
2013-05-14 09:03:00,47.7,31.9,30.02,East,80,3.0,12.0,54,0.00,CLR,,0.00,WeatherDisplay:10.37,2013-05-14 13:03:00,
2013-05-14 09:13:00,48.0,32.2,30.02,ENE,70,0.0,10.0,54,0.00,CLR,,0.00,WeatherDisplay:10.37,2013-05-14 13:13:00,
2013-05-14 09:23:00,48.6,31.3,30.02,NW,324,2.0,12.0,51,0.00,CLR,,0.00,WeatherDisplay:10.37,2013-05-14 13:23:00,
2013-05-14 09:33:00,48.4,29.6,30.02,NNW,348,5.0,11.0,48,0.00,CLR,,0.00,WeatherDisplay:10.37,2013-05-14 13:33:00,
2013-05-14 09:43:00,49.0,29.6,30.02,NNE,30,5.0,10.0,47,0.00,CLR,,0.00,WeatherDisplay:10.37,2013-05-14 13:43:00,
2013-05-14 09:53:00,49.2,30.3,30.01,NNE,13,3.0,10.0,48,0.00,CLR,,0.00,WeatherDisplay:10.37,2013-05-14 13:53:00,
2013-05-14 10:03:00,49.9,28.8,30.01,NNW,345,3.0,12.0,44,0.00,SCT,,0.00,WeatherDisplay:10.37,2013-05-14 14:03:00,
2013-05-14 10:13:00,50.4,30.4,30.01,NE,56,5.0,14.0,46,0.00,SCT,,0.00,WeatherDisplay:10.37,2013-05-14 14:13:00,
2013-05-14 10:23:00,50.5,28.2,30.01,NE,36,5.0,10.0,42,0.00,SCT,,0.00,WeatherDisplay:10.37,2013-05-14 14:23:00,
2013-05-14 10:33:00,50.0,28.3,30.00,NE,47,5.0,12.0,43,0.00,SCT,,0.00,WeatherDisplay:10.37,2013-05-14 14:33:00,
2013-05-14 10:43:00,49.9,26.5,30.00,NW,318,2.0,12.0,40,0.00,SCT,,0.00,WeatherDisplay:10.37,2013-05-14 14:43:00,
2013-05-14 10:53:00,49.8,28.2,30.01,NNE,13,2.0,7.0,43,0.00,SCT,,0.00,WeatherDisplay:10.37,2013-05-14 14:53:00,
2013-05-14 11:03:00,49.9,28.8,30.01,West,274,2.0,7.0,44,0.00,OVC,,0.00,WeatherDisplay:10.37,2013-05-14 15:03:00,
2013-05-14 11:13:00,50.3,30.3,30.01,WNW,292,1.0,8.0,46,0.00,OVC,,0.00,WeatherDisplay:10.37,2013-05-14 15:13:00,
2013-05-14 11:23:00,50.9,27.4,30.01,NW,325,3.0,9.0,40,0.00,OVC,,0.00,WeatherDisplay:10.37,2013-05-14 15:23:00,
2013-05-14 11:33:00,51.7,28.7,30.01,NW,311,2.0,10.0,41,0.00,OVC,,0.00,WeatherDisplay:10.37,2013-05-14 15:33:00,
2013-05-14 11:43:00,51.1,27.6,30.01,NW,313,3.0,10.0,40,0.00,OVC,,0.00,WeatherDisplay:10.37,2013-05-14 15:43:00,
2013-05-14 11:53:00,50.7,26.0,30.01,NW,308,5.0,13.0,38,0.00,OVC,,0.00,WeatherDisplay:10.37,2013-05-14 15:53:00,
2013-05-14 12:03:00,51.3,29.0,30.01,North,4,2.0,12.0,42,0.00,BKN,,0.00,WeatherDisplay:10.37,2013-05-14 16:03:00,
2013-05-14 12:13:00,51.0,26.2,30.01,WNW,287,6.0,13.0,38,0.00,BKN,,0.00,WeatherDisplay:10.37,2013-05-14 16:13:00,
2013-05-14 12:23:00,50.8,27.3,30.01,NNW,327,2.0,10.0,40,0.00,BKN,,0.00,WeatherDisplay:10.37,2013-05-14 16:23:00,
2013-05-14 12:33:00,51.4,27.2,30.01,North,359,1.0,10.0,39,0.00,BKN,,0.00,WeatherDisplay:10.37,2013-05-14 16:33:00,
2013-05-14 12:43:00,52.5,27.6,30.01,WNW,303,7.0,10.0,38,0.00,BKN,,0.00,WeatherDisplay:10.37,2013-05-14 16:43:00,
2013-05-14 12:53:00,53.2,26.9,30.01,WNW,283,1.0,12.0,36,0.00,BKN,,0.00,WeatherDisplay:10.37,2013-05-14 16:53:00,
2013-05-14 13:03:00,52.3,28.1,30.01,WNW,284,2.0,14.0,39,0.00,OVC,,0.00,WeatherDisplay:10.37,2013-05-14 17:03:00,
2013-05-14 13:13:00,52.0,28.4,30.01,WNW,283,1.0,13.0,40,0.00,OVC,,0.00,WeatherDisplay:10.37,2013-05-14 17:13:00,
2013-05-14 13:23:00,52.8,27.2,30.01,WNW,291,6.0,10.0,37,0.00,OVC,,0.00,WeatherDisplay:10.37,2013-05-14 17:23:00,
2013-05-14 13:33:00,51.6,25.5,30.01,NW,313,5.0,12.0,36,0.00,OVC,,0.00,WeatherDisplay:10.37,2013-05-14 17:33:00,
2013-05-14 13:43:00,53.2,28.8,30.01,West,261,2.0,12.0,39,0.00,OVC,,0.00,WeatherDisplay:10.37,2013-05-14 17:43:00,
2013-05-14 13:53:00,54.1,27.7,30.00,NW,312,2.0,10.0,36,0.00,OVC,,0.00,WeatherDisplay:10.37,2013-05-14 17:53:00,
2013-05-14 14:03:00,52.0,27.1,30.00,NW,322,2.0,12.0,38,0.00,OVC,,0.00,WeatherDisplay:10.37,2013-05-14 18:03:00,
2013-05-14 14:13:00,52.0,27.1,30.00,NNW,343,3.0,12.0,38,0.00,OVC,,0.00,WeatherDisplay:10.37,2013-05-14 18:13:00,
2013-05-14 14:23:00,52.3,27.4,30.00,NNW,346,2.0,12.0,38,0.00,OVC,,0.00,WeatherDisplay:10.37,2013-05-14 18:23:00,
2013-05-14 14:33:00,53.6,26.6,30.00,NNW,346,2.0,10.0,35,0.00,OVC,,0.00,WeatherDisplay:10.37,2013-05-14 18:33:00,
2013-05-14 14:43:00,53.0,26.7,30.00,NW,323,3.0,12.0,36,0.00,OVC,,0.00,WeatherDisplay:10.37,2013-05-14 18:43:00,
2013-05-14 14:53:00,52.4,28.1,29.99,NW,311,3.0,12.0,39,0.00,OVC,,0.00,WeatherDisplay:10.37,2013-05-14 18:53:00,
2013-05-14 15:03:00,52.6,27.7,29.99,WNW,303,3.0,9.0,38,0.00,OVC,,0.00,WeatherDisplay:10.37,2013-05-14 19:03:00,
2013-05-14 15:13:00,52.1,27.2,29.99,NW,304,7.0,14.0,38,0.00,OVC,,0.00,WeatherDisplay:10.37,2013-05-14 19:13:00,
2013-05-14 15:23:00,52.4,29.3,29.99,WNW,296,1.0,12.0,41,0.00,OVC,,0.00,WeatherDisplay:10.37,2013-05-14 19:23:00,
2013-05-14 15:33:00,54.5,30.0,29.98,West,281,3.0,12.0,39,0.00,OVC,,0.00,WeatherDisplay:10.37,2013-05-14 19:33:00,
2013-05-14 15:43:00,54.8,27.6,29.98,West,271,5.0,12.0,35,0.00,OVC,,0.00,WeatherDisplay:10.37,2013-05-14 19:43:00,
2013-05-14 15:53:00,53.3,28.3,29.98,WSW,257,6.0,16.0,38,0.00,OVC,,0.00,WeatherDisplay:10.37,2013-05-14 19:53:00,
2013-05-14 16:03:00,52.4,27.5,29.98,NW,304,3.0,16.0,38,0.00,OVC,,0.00,WeatherDisplay:10.37,2013-05-14 20:03:00,
2013-05-14 16:13:00,53.2,27.6,29.98,WNW,297,1.0,16.0,37,0.00,OVC,,0.00,WeatherDisplay:10.37,2013-05-14 20:13:00,
2013-05-14 16:23:00,53.9,28.2,29.98,WNW,297,2.0,16.0,37,0.00,OVC,,0.00,WeatherDisplay:10.37,2013-05-14 20:23:00,
2013-05-14 16:33:00,53.6,28.6,29.98,WNW,294,2.0,16.0,38,0.00,OVC,,0.00,WeatherDisplay:10.37,2013-05-14 20:33:00,
2013-05-14 16:43:00,53.3,28.3,29.98,NNW,337,2.0,16.0,38,0.00,OVC,,0.00,WeatherDisplay:10.37,2013-05-14 20:43:00,
2013-05-14 16:53:00,52.9,27.3,29.98,NNW,335,5.0,16.0,37,0.00,OVC,,0.00,WeatherDisplay:10.37,2013-05-14 20:53:00,
2013-05-14 17:03:00,52.9,26.6,29.98,NNW,329,5.0,16.0,36,0.00,OVC,,0.00,WeatherDisplay:10.37,2013-05-14 21:03:00,
2013-05-14 17:13:00,52.7,27.8,29.98,WNW,303,2.0,16.0,38,0.00,OVC,,0.00,WeatherDisplay:10.37,2013-05-14 21:13:00,
2013-05-14 17:23:00,52.6,28.3,29.98,NW,321,1.0,16.0,39,0.00,OVC,,0.00,WeatherDisplay:10.37,2013-05-14 21:23:00,
2013-05-14 17:33:00,52.9,28.0,29.98,WNW,295,3.0,16.0,38,0.00,OVC,,0.00,WeatherDisplay:10.37,2013-05-14 21:33:00,
2013-05-14 17:43:00,52.7,27.1,29.98,NNW,336,3.0,16.0,37,0.00,OVC,,0.00,WeatherDisplay:10.37,2013-05-14 21:43:00,
2013-05-14 17:53:00,52.3,28.1,29.97,NW,315,5.0,16.0,39,0.00,OVC,,0.00,WeatherDisplay:10.37,2013-05-14 21:53:00,
2013-05-14 18:03:00,52.3,27.4,29.98,NW,321,5.0,16.0,38,0.00,OVC,,0.00,WeatherDisplay:10.37,2013-05-14 22:03:00,
2013-05-14 18:13:00,52.5,28.3,29.98,West,278,0.0,16.0,39,0.00,OVC,,0.00,WeatherDisplay:10.37,2013-05-14 22:13:00,
2013-05-14 18:23:00,53.5,28.5,29.97,NW,325,5.0,16.0,38,0.00,OVC,,0.00,WeatherDisplay:10.37,2013-05-14 22:23:00,
2013-05-14 18:33:00,53.6,27.9,29.97,NNW,327,5.0,16.0,37,0.00,OVC,,0.00,WeatherDisplay:10.37,2013-05-14 22:33:00,
2013-05-14 18:43:00,52.8,27.8,29.97,WNW,290,5.0,18.0,38,0.00,OVC,,0.00,WeatherDisplay:10.37,2013-05-14 22:43:00,
2013-05-14 18:53:00,51.7,28.7,29.98,WNW,301,3.0,13.0,41,0.00,OVC,,0.00,WeatherDisplay:10.37,2013-05-14 22:53:00,
2013-05-14 19:13:00,50.8,28.5,29.98,WNW,299,1.0,7.0,42,0.00,CLR,,0.00,WeatherDisplay:10.37,2013-05-14 23:13:00,
2013-05-14 19:23:00,50.4,28.7,29.99,WNW,298,1.0,4.0,43,0.00,CLR,,0.00,WeatherDisplay:10.37,2013-05-14 23:23:00,
2013-05-14 19:33:00,49.9,28.8,29.99,WNW,295,1.0,8.0,44,0.00,CLR,,0.00,WeatherDisplay:10.37,2013-05-14 23:33:00,
2013-05-14 19:43:00,49.3,29.9,29.99,West,279,0.0,3.0,47,0.00,CLR,,0.00,WeatherDisplay:10.37,2013-05-14 23:43:00,
2013-05-14 19:53:00,48.6,29.8,30.00,WNW,287,1.0,2.0,48,0.00,CLR,,0.00,WeatherDisplay:10.37,2013-05-14 23:53:00,
2013-05-14 20:03:00,47.9,31.1,30.00,WNW,287,0.0,2.0,52,0.00,SCT,,0.00,WeatherDisplay:10.37,2013-05-15 00:03:00,
2013-05-14 20:13:00,47.3,32.4,30.00,WNW,287,0.0,0.0,56,0.00,SCT,,0.00,WeatherDisplay:10.37,2013-05-15 00:13:00,
2013-05-14 20:23:00,46.7,31.8,30.00,WNW,285,0.0,2.0,56,0.00,SCT,,0.00,WeatherDisplay:10.37,2013-05-15 00:23:00,
2013-05-14 20:33:00,46.5,31.2,30.01,WSW,248,0.0,2.0,55,0.00,SCT,,0.00,WeatherDisplay:10.37,2013-05-15 00:33:00,
2013-05-14 20:43:00,46.7,32.3,30.01,WSW,247,0.0,2.0,57,0.00,SCT,,0.00,WeatherDisplay:10.37,2013-05-15 00:43:00,
2013-05-14 20:53:00,46.5,32.5,30.02,WSW,247,0.0,1.0,58,0.00,SCT,,0.00,WeatherDisplay:10.37,2013-05-15 00:53:00,
2013-05-14 21:03:00,46.4,34.5,30.02,WSW,245,0.0,0.0,63,0.00,OVC,,0.00,WeatherDisplay:10.37,2013-05-15 01:03:00,
2013-05-14 21:13:00,46.1,33.4,30.02,WSW,246,0.0,0.0,61,0.00,OVC,,0.00,WeatherDisplay:10.37,2013-05-15 01:13:00,
2013-05-14 21:23:00,45.8,34.7,30.03,WSW,246,0.0,1.0,65,0.00,OVC,,0.00,WeatherDisplay:10.37,2013-05-15 01:23:00,
2013-05-14 21:33:00,45.6,32.9,30.03,WSW,248,0.0,0.0,61,0.00,OVC,,0.00,WeatherDisplay:10.37,2013-05-15 01:33:00,
2013-05-14 21:43:00,45.6,33.3,30.03,WSW,257,0.0,1.0,62,0.00,OVC,,0.00,WeatherDisplay:10.37,2013-05-15 01:43:00,
2013-05-14 21:53:00,45.3,34.6,30.03,WSW,246,0.0,0.0,66,0.00,OVC,,0.00,WeatherDisplay:10.37,2013-05-15 01:53:00,
2013-05-14 22:03:00,45.3,32.6,30.03,WSW,247,0.0,1.0,61,0.00,OVC,,0.00,WeatherDisplay:10.37,2013-05-15 02:03:00,
2013-05-14 22:13:00,45.2,33.3,30.03,WSW,244,0.0,1.0,63,0.00,OVC,,0.00,WeatherDisplay:10.37,2013-05-15 02:13:00,
2013-05-14 22:23:00,44.6,33.6,30.03,WSW,257,0.0,0.0,65,0.00,OVC,,0.00,WeatherDisplay:10.37,2013-05-15 02:23:00,
2013-05-14 22:33:00,43.9,32.5,30.03,WSW,244,0.0,1.0,64,0.00,OVC,,0.00,WeatherDisplay:10.37,2013-05-15 02:33:00,
2013-05-14 22:43:00,43.1,32.1,30.03,WSW,244,1.0,2.0,65,0.00,OVC,,0.00,WeatherDisplay:10.37,2013-05-15 02:43:00,
2013-05-14 22:53:00,42.9,32.3,30.03,West,264,1.0,2.0,66,0.00,OVC,,0.00,WeatherDisplay:10.37,2013-05-15 02:53:00,
2013-05-14 23:03:00,42.6,33.1,30.03,West,271,2.0,3.0,69,0.00,CLR,,0.00,WeatherDisplay:10.37,2013-05-15 03:03:00,
2013-05-14 23:13:00,42.4,32.9,30.03,WNW,298,1.0,2.0,69,0.00,CLR,,0.00,WeatherDisplay:10.37,2013-05-15 03:13:00,
2013-05-14 23:23:00,42.3,33.6,30.03,WNW,295,1.0,2.0,71,0.00,CLR,,0.00,WeatherDisplay:10.37,2013-05-15 03:23:00,
2013-05-14 23:33:00,42.1,33.7,30.04,WNW,290,1.0,2.0,72,0.00,CLR,,0.00,WeatherDisplay:10.37,2013-05-15 03:33:00,
2013-05-14 23:43:00,42.3,33.9,30.04,WNW,287,1.0,2.0,72,0.00,CLR,,0.00,WeatherDisplay:10.37,2013-05-15 03:43:00,
2013-05-14 23:53:00,42.6,34.2,30.04,WNW,290,1.0,3.0,72,0.00,CLR,,0.00,WeatherDisplay:10.37,2013-05-15 03:53:00,